contact:dominique.lefevre@mio.osupytheas.fr, maurice.libes@osupytheas.fr, didier.mallarino@osupytheas.fr
Project:EMSO http://www.emso-fr.org/EMSO-France
Depth: 2436.0 m
Title:EMSO Ligure Ouest : Data MII capteur CSTAR
DateTime,Latitude,Longitude,Instrument_Serial,Reference_Counts,Signal_Counts,Corrected_Signal_raw_counts,Calculated_Beam_c_inverse_meters,Internal_thermistor_counts
DateTime,Latitude,Longitude,Instrument_Serial,Reference_Counts,Signal_Counts,Corrected_Signal_raw_counts,Calculated_Beam_c_inverse_meters,Internal_thermistor_counts
2019-09-04T00:01:24,42.805,6.029,CST-1368DR,8090,11329,15406,0.054,550
2019-09-04T00:04:26,42.805,6.029,CST-1368DR,8090,11327,15404,0.055,551
2019-09-04T00:07:27,42.805,6.029,CST-1368DR,8090,11327,15404,0.055,550
2019-09-04T00:10:29,42.805,6.029,CST-1368DR,8090,11327,15403,0.055,551
2019-09-04T00:13:31,42.805,6.029,CST-1368DR,8090,11325,15401,0.055,551
2019-09-04T00:16:32,42.805,6.029,CST-1368DR,8090,11327,15404,0.055,551
2019-09-04T00:19:34,42.805,6.029,CST-1368DR,8090,11327,15403,0.055,551
2019-09-04T00:22:36,42.805,6.029,CST-1368DR,8090,11327,15403,0.055,551
2019-09-04T00:25:37,42.805,6.029,CST-1368DR,8090,11327,15404,0.055,551
2019-09-04T00:28:39,42.805,6.029,CST-1368DR,8090,11326,15403,0.055,551
2019-09-04T00:31:41,42.805,6.029,CST-1368DR,8089,11327,15405,0.054,551
2019-09-04T00:34:42,42.805,6.029,CST-1368DR,8090,11326,15402,0.055,551
2019-09-04T00:37:44,42.805,6.029,CST-1368DR,8090,11328,15404,0.055,551
2019-09-04T00:40:46,42.805,6.029,CST-1368DR,8090,11325,15401,0.055,551
2019-09-04T00:43:47,42.805,6.029,CST-1368DR,8089,11327,15405,0.054,550
2019-09-04T00:46:49,42.805,6.029,CST-1368DR,8089,11322,15399,0.056,551
2019-09-04T00:49:51,42.805,6.029,CST-1368DR,8089,11327,15406,0.054,551
2019-09-04T00:52:52,42.805,6.029,CST-1368DR,8089,11328,15406,0.054,551
2019-09-04T00:55:54,42.805,6.029,CST-1368DR,8089,11327,15406,0.054,551
2019-09-04T00:58:55,42.805,6.029,CST-1368DR,8089,11329,15407,0.054,551
2019-09-04T01:01:57,42.805,6.029,CST-1368DR,8089,11328,15406,0.054,551
2019-09-04T01:04:59,42.805,6.029,CST-1368DR,8089,11327,15405,0.054,551
2019-09-04T01:08:00,42.805,6.029,CST-1368DR,8089,11328,15407,0.054,551
2019-09-04T01:11:02,42.805,6.029,CST-1368DR,8089,11325,15403,0.055,551
2019-09-04T01:14:04,42.805,6.029,CST-1368DR,8089,11327,15405,0.054,551
2019-09-04T01:17:05,42.805,6.029,CST-1368DR,8089,11327,15405,0.054,551
2019-09-04T01:20:07,42.805,6.029,CST-1368DR,8089,11324,15402,0.055,551
2019-09-04T01:23:09,42.805,6.029,CST-1368DR,8089,11326,15404,0.055,551
2019-09-04T01:26:10,42.805,6.029,CST-1368DR,8089,11327,15405,0.054,551
2019-09-04T01:29:12,42.805,6.029,CST-1368DR,8089,11327,15405,0.054,551
2019-09-04T01:32:13,42.805,6.029,CST-1368DR,8089,11327,15405,0.054,551
2019-09-04T01:35:15,42.805,6.029,CST-1368DR,8089,11325,15403,0.055,551
2019-09-04T01:38:17,42.805,6.029,CST-1368DR,8089,11325,15403,0.055,551
2019-09-04T01:41:18,42.805,6.029,CST-1368DR,8089,11325,15403,0.055,551
2019-09-04T01:44:20,42.805,6.029,CST-1368DR,8089,11323,15400,0.056,551
2019-09-04T01:47:22,42.805,6.029,CST-1368DR,8089,11326,15404,0.055,551
2019-09-04T01:50:23,42.805,6.029,CST-1368DR,8089,11326,15404,0.055,551
2019-09-04T01:53:25,42.805,6.029,CST-1368DR,8089,11324,15401,0.055,551
2019-09-04T01:56:27,42.805,6.029,CST-1368DR,8089,11326,15403,0.055,551
2019-09-04T01:59:28,42.805,6.029,CST-1368DR,8089,11325,15403,0.055,551
2019-09-04T02:02:30,42.805,6.029,CST-1368DR,8089,11325,15403,0.055,551
2019-09-04T02:05:32,42.805,6.029,CST-1368DR,8089,11325,15403,0.055,551
2019-09-04T02:08:33,42.805,6.029,CST-1368DR,8089,11322,15399,0.056,551
2019-09-04T02:11:35,42.805,6.029,CST-1368DR,8089,11325,15403,0.055,551
2019-09-04T02:14:37,42.805,6.029,CST-1368DR,8089,11322,15399,0.056,550
2019-09-04T02:17:38,42.805,6.029,CST-1368DR,8089,11324,15401,0.055,551
2019-09-04T02:20:40,42.805,6.029,CST-1368DR,8089,11326,15403,0.055,550
2019-09-04T02:23:41,42.805,6.029,CST-1368DR,8089,11325,15402,0.055,551
2019-09-04T02:26:43,42.805,6.029,CST-1368DR,8089,11324,15401,0.055,551
2019-09-04T02:29:45,42.805,6.029,CST-1368DR,8089,11325,15403,0.055,551
2019-09-04T02:32:46,42.805,6.029,CST-1368DR,8089,11323,15400,0.056,551
2019-09-04T02:35:48,42.805,6.029,CST-1368DR,8089,11325,15403,0.055,551
2019-09-04T02:38:50,42.805,6.029,CST-1368DR,8089,11325,15403,0.055,551
2019-09-04T02:41:51,42.805,6.029,CST-1368DR,8089,11326,15404,0.055,551
2019-09-04T02:44:53,42.805,6.029,CST-1368DR,8089,11323,15400,0.056,550
2019-09-04T02:47:55,42.805,6.029,CST-1368DR,8089,11324,15401,0.055,550
2019-09-04T02:50:56,42.805,6.029,CST-1368DR,8089,11324,15401,0.055,550
2019-09-04T02:53:58,42.805,6.029,CST-1368DR,8089,11325,15403,0.055,551
2019-09-04T02:56:59,42.805,6.029,CST-1368DR,8089,11325,15403,0.055,550
2019-09-04T03:00:01,42.805,6.029,CST-1368DR,8089,11324,15402,0.055,551
2019-09-04T03:03:03,42.805,6.029,CST-1368DR,8089,11324,15401,0.055,551
2019-09-04T03:06:04,42.805,6.029,CST-1368DR,8089,11326,15404,0.055,551
2019-09-04T03:09:06,42.805,6.029,CST-1368DR,8089,11328,15406,0.054,551
2019-09-04T03:12:08,42.805,6.029,CST-1368DR,8089,11325,15402,0.055,551
2019-09-04T03:15:09,42.805,6.029,CST-1368DR,8089,11325,15402,0.055,551
2019-09-04T03:18:11,42.805,6.029,CST-1368DR,8089,11326,15404,0.055,550
2019-09-04T03:21:13,42.805,6.029,CST-1368DR,8089,11323,15400,0.056,551
2019-09-04T03:24:14,42.805,6.029,CST-1368DR,8089,11325,15402,0.055,551
2019-09-04T03:27:16,42.805,6.029,CST-1368DR,8089,11326,15404,0.055,551
2019-09-04T03:30:17,42.805,6.029,CST-1368DR,8089,11325,15402,0.055,551
2019-09-04T03:33:19,42.805,6.029,CST-1368DR,8089,11325,15402,0.055,551
2019-09-04T03:36:21,42.805,6.029,CST-1368DR,8088,11323,15402,0.055,551
2019-09-04T03:39:22,42.805,6.029,CST-1368DR,8088,11324,15403,0.055,551
2019-09-04T03:42:24,42.805,6.029,CST-1368DR,8088,11324,15403,0.055,551
2019-09-04T03:45:26,42.805,6.029,CST-1368DR,8088,11324,15402,0.055,551
2019-09-04T03:48:27,42.805,6.029,CST-1368DR,8088,11324,15403,0.055,551
2019-09-04T03:51:29,42.805,6.029,CST-1368DR,8088,11324,15403,0.055,551
2019-09-04T03:54:30,42.805,6.029,CST-1368DR,8088,11324,15403,0.055,551
2019-09-04T03:57:32,42.805,6.029,CST-1368DR,8088,11325,15404,0.055,551
2019-09-04T04:00:34,42.805,6.029,CST-1368DR,8088,11323,15401,0.055,551
2019-09-04T04:03:35,42.805,6.029,CST-1368DR,8088,11326,15406,0.054,551
2019-09-04T04:06:37,42.805,6.029,CST-1368DR,8088,11324,15403,0.055,551
2019-09-04T04:09:39,42.805,6.029,CST-1368DR,8088,11325,15404,0.055,550
2019-09-04T04:12:40,42.805,6.029,CST-1368DR,8088,11324,15403,0.055,551
2019-09-04T04:15:42,42.805,6.029,CST-1368DR,8088,11324,15403,0.055,550
2019-09-04T04:18:44,42.805,6.029,CST-1368DR,8088,11325,15404,0.055,551
2019-09-04T04:21:45,42.805,6.029,CST-1368DR,8088,11323,15402,0.055,551
2019-09-04T04:24:47,42.805,6.029,CST-1368DR,8088,11322,15401,0.055,551
2019-09-04T04:27:48,42.805,6.029,CST-1368DR,8088,11324,15403,0.055,551
2019-09-04T04:30:50,42.805,6.029,CST-1368DR,8088,11324,15403,0.055,551
2019-09-04T04:33:52,42.805,6.029,CST-1368DR,8088,11323,15402,0.055,551
2019-09-04T04:36:53,42.805,6.029,CST-1368DR,8088,11324,15403,0.055,551
2019-09-04T04:39:55,42.805,6.029,CST-1368DR,8088,11325,15404,0.055,551
2019-09-04T04:42:57,42.805,6.029,CST-1368DR,8088,11325,15404,0.055,550
2019-09-04T04:45:58,42.805,6.029,CST-1368DR,8088,11324,15402,0.055,551
2019-09-04T04:49:00,42.805,6.029,CST-1368DR,8088,11324,15403,0.055,551
2019-09-04T04:52:02,42.805,6.029,CST-1368DR,8088,11322,15400,0.056,551
2019-09-04T04:55:03,42.805,6.029,CST-1368DR,8088,11322,15400,0.056,551
2019-09-04T04:58:06,42.805,6.029,CST-1368DR,8088,11325,15404,0.055,551
2019-09-04T05:01:07,42.805,6.029,CST-1368DR,8088,11325,15404,0.055,551
2019-09-04T05:04:09,42.805,6.029,CST-1368DR,8088,11324,15403,0.055,551
2019-09-04T05:07:11,42.805,6.029,CST-1368DR,8088,11324,15402,0.055,551
2019-09-04T05:10:12,42.805,6.029,CST-1368DR,8088,11324,15403,0.055,551
2019-09-04T05:13:14,42.805,6.029,CST-1368DR,8088,11320,15397,0.056,551
2019-09-04T05:16:16,42.805,6.029,CST-1368DR,8088,11324,15403,0.055,550
2019-09-04T05:19:17,42.805,6.029,CST-1368DR,8088,11323,15402,0.055,551
2019-09-04T05:22:19,42.805,6.029,CST-1368DR,8088,11324,15403,0.055,551
2019-09-04T05:25:21,42.805,6.029,CST-1368DR,8088,11325,15404,0.055,550
2019-09-04T05:28:22,42.805,6.029,CST-1368DR,8088,11322,15400,0.056,551
2019-09-04T05:31:24,42.805,6.029,CST-1368DR,8088,11324,15402,0.055,551
2019-09-04T05:34:25,42.805,6.029,CST-1368DR,8088,11325,15404,0.055,551
2019-09-04T05:37:27,42.805,6.029,CST-1368DR,8088,11324,15403,0.055,551
2019-09-04T05:40:29,42.805,6.029,CST-1368DR,8088,11322,15401,0.055,551
2019-09-04T05:43:30,42.805,6.029,CST-1368DR,8088,11325,15404,0.055,550
2019-09-04T05:46:32,42.805,6.029,CST-1368DR,8088,11323,15402,0.055,550
2019-09-04T05:49:34,42.805,6.029,CST-1368DR,8087,11322,15401,0.055,551
2019-09-04T05:52:35,42.805,6.029,CST-1368DR,8087,11324,15405,0.054,551
2019-09-04T05:55:37,42.805,6.029,CST-1368DR,8088,11324,15403,0.055,551
2019-09-04T05:58:38,42.805,6.029,CST-1368DR,8087,11323,15404,0.055,551
2019-09-04T06:01:40,42.805,6.029,CST-1368DR,8087,11323,15403,0.055,551
2019-09-04T06:04:42,42.805,6.029,CST-1368DR,8087,11322,15402,0.055,551
2019-09-04T06:07:43,42.805,6.029,CST-1368DR,8087,11324,15405,0.054,551
2019-09-04T06:10:45,42.805,6.029,CST-1368DR,8087,11321,15400,0.056,550
2019-09-04T06:13:47,42.805,6.029,CST-1368DR,8087,11323,15403,0.055,551
2019-09-04T06:16:48,42.805,6.029,CST-1368DR,8087,11321,15401,0.055,551
2019-09-04T06:19:50,42.805,6.029,CST-1368DR,8087,11320,15399,0.056,551
2019-09-04T06:22:52,42.805,6.029,CST-1368DR,8087,11322,15403,0.055,551
2019-09-04T06:25:53,42.805,6.029,CST-1368DR,8087,11323,15404,0.055,551
2019-09-04T06:28:55,42.805,6.029,CST-1368DR,8087,11324,15404,0.055,551
2019-09-04T06:31:57,42.805,6.029,CST-1368DR,8087,11322,15403,0.055,551
2019-09-04T06:34:58,42.805,6.029,CST-1368DR,8087,11319,15398,0.056,550
2019-09-04T06:38:00,42.805,6.029,CST-1368DR,8087,11321,15401,0.055,551
2019-09-04T06:41:02,42.805,6.029,CST-1368DR,8087,11320,15399,0.056,551
2019-09-04T06:44:03,42.805,6.029,CST-1368DR,8087,11320,15399,0.056,551
2019-09-04T06:47:05,42.805,6.029,CST-1368DR,8087,11323,15404,0.055,551
2019-09-04T06:50:06,42.805,6.029,CST-1368DR,8087,11323,15403,0.055,551
2019-09-04T06:53:08,42.805,6.029,CST-1368DR,8087,11323,15404,0.055,551
2019-09-04T06:56:10,42.805,6.029,CST-1368DR,8087,11324,15405,0.054,551
2019-09-04T06:59:11,42.805,6.029,CST-1368DR,8087,11323,15404,0.055,551
2019-09-04T07:02:13,42.805,6.029,CST-1368DR,8087,11320,15399,0.056,551
2019-09-04T07:05:15,42.805,6.029,CST-1368DR,8087,11322,15402,0.055,550
2019-09-04T07:08:16,42.805,6.029,CST-1368DR,8087,11321,15400,0.056,551
2019-09-04T07:11:18,42.805,6.029,CST-1368DR,8087,11321,15401,0.055,551
2019-09-04T07:14:19,42.805,6.029,CST-1368DR,8087,11316,15394,0.057,551
2019-09-04T07:17:21,42.805,6.029,CST-1368DR,8087,11322,15402,0.055,551
2019-09-04T07:20:23,42.805,6.029,CST-1368DR,8087,11321,15400,0.056,551
2019-09-04T07:23:24,42.805,6.029,CST-1368DR,8087,11322,15402,0.055,551
2019-09-04T07:26:26,42.805,6.029,CST-1368DR,8087,11322,15403,0.055,551
2019-09-04T07:29:28,42.805,6.029,CST-1368DR,8087,11325,15406,0.054,551
2019-09-04T07:32:29,42.805,6.029,CST-1368DR,8087,11322,15403,0.055,551
2019-09-04T07:35:31,42.805,6.029,CST-1368DR,8087,11322,15402,0.055,551
2019-09-04T07:38:33,42.805,6.029,CST-1368DR,8087,11320,15399,0.056,551
2019-09-04T07:41:34,42.805,6.029,CST-1368DR,8087,11322,15401,0.055,551
2019-09-04T07:44:36,42.805,6.029,CST-1368DR,8087,11323,15404,0.055,551
2019-09-04T07:47:38,42.805,6.029,CST-1368DR,8087,11324,15405,0.054,551
2019-09-04T07:50:39,42.805,6.029,CST-1368DR,8087,11320,15400,0.056,551
2019-09-04T07:53:41,42.805,6.029,CST-1368DR,8087,11322,15402,0.055,551
2019-09-04T07:56:43,42.805,6.029,CST-1368DR,8087,11321,15401,0.055,551
2019-09-04T07:59:44,42.805,6.029,CST-1368DR,8087,11319,15398,0.056,550
2019-09-04T08:02:46,42.805,6.029,CST-1368DR,8087,11324,15404,0.055,550
2019-09-04T08:05:47,42.805,6.029,CST-1368DR,8087,11323,15404,0.055,551
2019-09-04T08:08:49,42.805,6.029,CST-1368DR,8086,11321,15402,0.055,551
2019-09-04T08:11:51,42.805,6.029,CST-1368DR,8087,11322,15401,0.055,551
2019-09-04T08:14:52,42.805,6.029,CST-1368DR,8087,11322,15402,0.055,551
2019-09-04T08:17:54,42.805,6.029,CST-1368DR,8087,11322,15401,0.055,551
2019-09-04T08:20:56,42.805,6.029,CST-1368DR,8086,11322,15403,0.055,551
2019-09-04T08:23:58,42.805,6.029,CST-1368DR,8086,11320,15401,0.055,551
2019-09-04T08:26:59,42.805,6.029,CST-1368DR,8086,11321,15403,0.055,551
2019-09-04T08:30:01,42.805,6.029,CST-1368DR,8086,11322,15404,0.055,551
2019-09-04T08:33:03,42.805,6.029,CST-1368DR,8086,11321,15403,0.055,551
2019-09-04T08:36:04,42.805,6.029,CST-1368DR,8086,11322,15403,0.055,551
2019-09-04T08:39:06,42.805,6.029,CST-1368DR,8086,11322,15404,0.055,551
2019-09-04T08:42:08,42.805,6.029,CST-1368DR,8086,11321,15402,0.055,551
2019-09-04T08:45:09,42.805,6.029,CST-1368DR,8086,11322,15403,0.055,551
2019-09-04T08:48:11,42.805,6.029,CST-1368DR,8086,11322,15404,0.055,550
2019-09-04T08:51:12,42.805,6.029,CST-1368DR,8086,11322,15404,0.055,551
2019-09-04T08:54:14,42.805,6.029,CST-1368DR,8086,11322,15404,0.055,551
2019-09-04T08:57:16,42.805,6.029,CST-1368DR,8086,11320,15401,0.055,551
2019-09-04T09:00:17,42.805,6.029,CST-1368DR,8086,11323,15405,0.054,551
2019-09-04T09:03:19,42.805,6.029,CST-1368DR,8086,11322,15404,0.055,551
2019-09-04T09:06:21,42.805,6.029,CST-1368DR,8086,11317,15397,0.056,551
2019-09-04T09:09:22,42.805,6.029,CST-1368DR,8086,11321,15403,0.055,551
2019-09-04T09:12:24,42.805,6.029,CST-1368DR,8086,11321,15402,0.055,551
2019-09-04T09:15:25,42.805,6.029,CST-1368DR,8086,11320,15402,0.055,550
2019-09-04T09:18:27,42.805,6.029,CST-1368DR,8086,11320,15402,0.055,551
2019-09-04T09:21:29,42.805,6.029,CST-1368DR,8086,11318,15398,0.056,551
2019-09-04T09:24:30,42.805,6.029,CST-1368DR,8086,11320,15402,0.055,551
2019-09-04T09:27:32,42.805,6.029,CST-1368DR,8086,11319,15400,0.056,551
2019-09-04T09:30:34,42.805,6.029,CST-1368DR,8086,11318,15398,0.056,551
2019-09-04T09:33:35,42.805,6.029,CST-1368DR,8086,11319,15400,0.056,550
2019-09-04T09:36:37,42.805,6.029,CST-1368DR,8086,11320,15402,0.055,551
2019-09-04T09:39:39,42.805,6.029,CST-1368DR,8086,11320,15402,0.055,551
2019-09-04T09:42:40,42.805,6.029,CST-1368DR,8086,11319,15399,0.056,551
2019-09-04T09:45:42,42.805,6.029,CST-1368DR,8086,11320,15401,0.055,551
2019-09-04T09:48:43,42.805,6.029,CST-1368DR,8086,11318,15398,0.056,551
2019-09-04T09:51:45,42.805,6.029,CST-1368DR,8086,11320,15401,0.055,551
2019-09-04T09:54:47,42.805,6.029,CST-1368DR,8086,11321,15403,0.055,551
2019-09-04T09:57:48,42.805,6.029,CST-1368DR,8086,11320,15401,0.055,551
2019-09-04T10:00:50,42.805,6.029,CST-1368DR,8086,11319,15400,0.056,551
2019-09-04T10:03:52,42.805,6.029,CST-1368DR,8086,11320,15402,0.055,551
2019-09-04T10:06:53,42.805,6.029,CST-1368DR,8086,11318,15399,0.056,551
2019-09-04T10:09:55,42.805,6.029,CST-1368DR,8086,11320,15401,0.055,551
2019-09-04T10:12:57,42.805,6.029,CST-1368DR,8086,11318,15399,0.056,551
2019-09-04T10:15:58,42.805,6.029,CST-1368DR,8086,11320,15401,0.055,550
2019-09-04T10:19:00,42.805,6.029,CST-1368DR,8086,11321,15402,0.055,551
2019-09-04T10:22:01,42.805,6.029,CST-1368DR,8086,11320,15401,0.055,551
2019-09-04T10:25:03,42.805,6.029,CST-1368DR,8086,11320,15401,0.055,551
2019-09-04T10:28:05,42.805,6.029,CST-1368DR,8086,11317,15397,0.056,550
2019-09-04T10:31:07,42.805,6.029,CST-1368DR,8086,11318,15398,0.056,551
2019-09-04T10:34:09,42.805,6.029,CST-1368DR,8086,11321,15402,0.055,551
2019-09-04T10:37:10,42.805,6.029,CST-1368DR,8086,11320,15401,0.055,551
2019-09-04T10:40:12,42.805,6.029,CST-1368DR,8086,11321,15402,0.055,550
2019-09-04T10:43:14,42.805,6.029,CST-1368DR,8086,11319,15400,0.056,551
2019-09-04T10:46:15,42.805,6.029,CST-1368DR,8084,11195,15235,0.099,551
2019-09-04T10:49:17,42.805,6.029,CST-1368DR,8085,11318,15400,0.056,551
2019-09-04T10:52:18,42.805,6.029,CST-1368DR,8085,11319,15401,0.055,551
2019-09-04T10:55:20,42.805,6.029,CST-1368DR,8085,11318,15400,0.056,550
2019-09-04T10:58:22,42.805,6.029,CST-1368DR,8085,11319,15401,0.055,551
2019-09-04T11:01:23,42.805,6.029,CST-1368DR,8085,11318,15400,0.056,551
2019-09-04T11:04:25,42.805,6.029,CST-1368DR,8085,11316,15397,0.056,551
2019-09-04T11:07:27,42.805,6.029,CST-1368DR,8085,11315,15396,0.057,551
2019-09-04T11:10:28,42.805,6.029,CST-1368DR,8085,11318,15400,0.056,551
2019-09-04T11:13:30,42.805,6.029,CST-1368DR,8085,11319,15401,0.055,551
2019-09-04T11:16:31,42.805,6.029,CST-1368DR,8085,11318,15401,0.055,550
2019-09-04T11:19:33,42.805,6.029,CST-1368DR,8085,11318,15401,0.055,551
2019-09-04T11:22:35,42.805,6.029,CST-1368DR,8085,11319,15401,0.055,551
2019-09-04T11:25:36,42.805,6.029,CST-1368DR,8085,11319,15402,0.055,551
2019-09-04T11:28:38,42.805,6.029,CST-1368DR,8085,11317,15399,0.056,551
2019-09-04T11:31:40,42.805,6.029,CST-1368DR,8085,11318,15400,0.056,551
2019-09-04T11:34:42,42.805,6.029,CST-1368DR,8085,11314,15394,0.057,550
2019-09-04T11:37:43,42.805,6.029,CST-1368DR,8085,11318,15401,0.055,551
2019-09-04T11:40:45,42.805,6.029,CST-1368DR,8085,11320,15403,0.055,551
2019-09-04T11:43:46,42.805,6.029,CST-1368DR,8085,11318,15401,0.055,551
2019-09-04T11:46:48,42.805,6.029,CST-1368DR,8085,11318,15400,0.056,551
2019-09-04T11:49:50,42.805,6.029,CST-1368DR,8085,11317,15398,0.056,551
2019-09-04T11:52:51,42.805,6.029,CST-1368DR,8085,11318,15400,0.056,551
2019-09-04T11:55:53,42.805,6.029,CST-1368DR,8085,11317,15399,0.056,551
2019-09-04T11:58:55,42.805,6.029,CST-1368DR,8085,11319,15401,0.055,551
2019-09-04T12:01:56,42.805,6.029,CST-1368DR,8085,11318,15400,0.056,550
2019-09-04T12:04:58,42.805,6.029,CST-1368DR,8085,11315,15396,0.057,550
2019-09-04T12:08:00,42.805,6.029,CST-1368DR,8085,11316,15398,0.056,551
2019-09-04T12:11:01,42.805,6.029,CST-1368DR,8085,11317,15399,0.056,551
2019-09-04T12:14:03,42.805,6.029,CST-1368DR,8085,11318,15400,0.056,550
2019-09-04T12:17:04,42.805,6.029,CST-1368DR,8085,11318,15400,0.056,551
2019-09-04T12:20:06,42.805,6.029,CST-1368DR,8085,11318,15401,0.055,551
2019-09-04T12:23:08,42.805,6.029,CST-1368DR,8085,11315,15395,0.057,551
2019-09-04T12:26:09,42.805,6.029,CST-1368DR,8085,11318,15400,0.056,551
2019-09-04T12:29:11,42.805,6.029,CST-1368DR,8085,11320,15402,0.055,551
2019-09-04T12:32:13,42.805,6.029,CST-1368DR,8085,11317,15398,0.056,551
2019-09-04T12:35:14,42.805,6.029,CST-1368DR,8085,11318,15400,0.056,551
2019-09-04T12:38:16,42.805,6.029,CST-1368DR,8085,11320,15403,0.055,551
2019-09-04T12:41:18,42.805,6.029,CST-1368DR,8085,11319,15401,0.055,551
2019-09-04T12:44:19,42.805,6.029,CST-1368DR,8085,11318,15400,0.056,551
2019-09-04T12:47:21,42.805,6.029,CST-1368DR,8085,11317,15399,0.056,551
2019-09-04T12:50:22,42.805,6.029,CST-1368DR,8085,11317,15399,0.056,551
2019-09-04T12:53:24,42.805,6.029,CST-1368DR,8084,11313,15395,0.057,551
2019-09-04T12:56:26,42.805,6.029,CST-1368DR,8084,11318,15402,0.055,551
2019-09-04T12:59:27,42.805,6.029,CST-1368DR,8084,11315,15398,0.056,551
2019-09-04T13:02:29,42.805,6.029,CST-1368DR,8085,11319,15401,0.055,550
2019-09-04T13:05:31,42.805,6.029,CST-1368DR,8084,11319,15403,0.055,551
2019-09-04T13:08:32,42.805,6.029,CST-1368DR,8085,11318,15400,0.056,551
2019-09-04T13:11:34,42.805,6.029,CST-1368DR,8084,11319,15403,0.055,551
2019-09-04T13:14:36,42.805,6.029,CST-1368DR,8084,11317,15401,0.055,551
2019-09-04T13:17:37,42.805,6.029,CST-1368DR,8084,11317,15401,0.055,551
2019-09-04T13:20:39,42.805,6.029,CST-1368DR,8084,11319,15404,0.055,551
2019-09-04T13:23:41,42.805,6.029,CST-1368DR,8084,11319,15404,0.055,551
2019-09-04T13:26:42,42.805,6.029,CST-1368DR,8084,11319,15403,0.055,551
2019-09-04T13:29:44,42.805,6.029,CST-1368DR,8084,11317,15400,0.056,550
2019-09-04T13:32:45,42.805,6.029,CST-1368DR,8084,11318,15402,0.055,551
2019-09-04T13:35:47,42.805,6.029,CST-1368DR,8084,11315,15398,0.056,551
2019-09-04T13:38:49,42.805,6.029,CST-1368DR,8084,11318,15401,0.055,551
2019-09-04T13:41:50,42.805,6.029,CST-1368DR,8084,11318,15402,0.055,551
2019-09-04T13:44:52,42.805,6.029,CST-1368DR,8084,11319,15403,0.055,551
2019-09-04T13:47:54,42.805,6.029,CST-1368DR,8084,11317,15401,0.055,551
2019-09-04T13:50:55,42.805,6.029,CST-1368DR,8084,11317,15401,0.055,551
2019-09-04T13:53:57,42.805,6.029,CST-1368DR,8084,11319,15404,0.055,551
2019-09-04T13:56:59,42.805,6.029,CST-1368DR,8084,11320,15405,0.054,551
2019-09-04T14:00:01,42.805,6.029,CST-1368DR,8084,11319,15403,0.055,550
2019-09-04T14:03:02,42.805,6.029,CST-1368DR,8084,11319,15403,0.055,551
2019-09-04T14:06:04,42.805,6.029,CST-1368DR,8084,11320,15404,0.055,551
2019-09-04T14:09:06,42.805,6.029,CST-1368DR,8084,11319,15403,0.055,551
2019-09-04T14:12:07,42.805,6.029,CST-1368DR,8084,11317,15401,0.055,551
2019-09-04T14:15:09,42.805,6.029,CST-1368DR,8084,11317,15400,0.056,551
2019-09-04T14:18:11,42.805,6.029,CST-1368DR,8084,11310,15391,0.058,550
2019-09-04T14:21:12,42.805,6.029,CST-1368DR,8084,11318,15402,0.055,551
2019-09-04T14:24:14,42.805,6.029,CST-1368DR,8084,11318,15402,0.055,551
2019-09-04T14:27:15,42.805,6.029,CST-1368DR,8084,11319,15403,0.055,551
2019-09-04T14:30:17,42.805,6.029,CST-1368DR,8084,11318,15402,0.055,551
2019-09-04T14:33:19,42.805,6.029,CST-1368DR,8084,11319,15403,0.055,551
2019-09-04T14:36:20,42.805,6.029,CST-1368DR,8084,11318,15401,0.055,551
2019-09-04T14:39:22,42.805,6.029,CST-1368DR,8084,11318,15402,0.055,551
2019-09-04T14:42:24,42.805,6.029,CST-1368DR,8084,11317,15401,0.055,551
2019-09-04T14:45:25,42.805,6.029,CST-1368DR,8084,11318,15402,0.055,551
2019-09-04T14:48:27,42.805,6.029,CST-1368DR,8084,11320,15404,0.055,551
2019-09-04T14:51:29,42.805,6.029,CST-1368DR,8084,11319,15403,0.055,550
2019-09-04T14:54:30,42.805,6.029,CST-1368DR,8084,11319,15404,0.055,551
2019-09-04T14:57:32,42.805,6.029,CST-1368DR,8084,11319,15403,0.055,551
2019-09-04T15:00:33,42.805,6.029,CST-1368DR,8084,11318,15401,0.055,551
2019-09-04T15:03:35,42.805,6.029,CST-1368DR,8084,11318,15402,0.055,551
2019-09-04T15:06:37,42.805,6.029,CST-1368DR,8084,11317,15401,0.055,551
2019-09-04T15:09:38,42.805,6.029,CST-1368DR,8084,11316,15400,0.056,551
2019-09-04T15:12:40,42.805,6.029,CST-1368DR,8084,11318,15402,0.055,551
2019-09-04T15:15:42,42.805,6.029,CST-1368DR,8084,11318,15402,0.055,551
2019-09-04T15:18:43,42.805,6.029,CST-1368DR,8084,11319,15403,0.055,551
2019-09-04T15:21:45,42.805,6.029,CST-1368DR,8084,11317,15401,0.055,551
2019-09-04T15:24:47,42.805,6.029,CST-1368DR,8084,11317,15401,0.055,550
2019-09-04T15:27:48,42.805,6.029,CST-1368DR,8084,11319,15403,0.055,551
2019-09-04T15:30:50,42.805,6.029,CST-1368DR,8084,11318,15402,0.055,551
2019-09-04T15:33:52,42.805,6.029,CST-1368DR,8084,11319,15403,0.055,551
2019-09-04T15:36:53,42.805,6.029,CST-1368DR,8084,11318,15402,0.055,550
2019-09-04T15:39:55,42.805,6.029,CST-1368DR,8084,11318,15402,0.055,551
2019-09-04T15:42:56,42.805,6.029,CST-1368DR,8084,11318,15402,0.055,551
2019-09-04T15:45:58,42.805,6.029,CST-1368DR,8084,11316,15399,0.056,551
2019-09-04T15:49:00,42.805,6.029,CST-1368DR,8084,11318,15402,0.055,551
2019-09-04T15:52:01,42.805,6.029,CST-1368DR,8084,11319,15404,0.055,551
2019-09-04T15:55:03,42.805,6.029,CST-1368DR,8084,11319,15403,0.055,551
2019-09-04T15:58:06,42.805,6.029,CST-1368DR,8083,11318,15404,0.055,551
2019-09-04T16:01:07,42.805,6.029,CST-1368DR,8084,11319,15404,0.055,551
2019-09-04T16:04:09,42.805,6.029,CST-1368DR,8083,11318,15404,0.055,551
2019-09-04T16:07:11,42.805,6.029,CST-1368DR,8083,11316,15400,0.056,551
2019-09-04T16:10:12,42.805,6.029,CST-1368DR,8083,11278,15349,0.069,551
2019-09-04T16:13:14,42.805,6.029,CST-1368DR,8083,11318,15403,0.055,551
2019-09-04T16:16:15,42.805,6.029,CST-1368DR,8083,11319,15404,0.055,551
2019-09-04T16:19:17,42.805,6.029,CST-1368DR,8083,11318,15403,0.055,551
2019-09-04T16:22:19,42.805,6.029,CST-1368DR,8083,11319,15404,0.055,551
2019-09-04T16:25:20,42.805,6.029,CST-1368DR,8083,11321,15407,0.054,551
2019-09-04T16:28:22,42.805,6.029,CST-1368DR,8083,11320,15406,0.054,551
2019-09-04T16:31:24,42.805,6.029,CST-1368DR,8083,11320,15406,0.054,550
2019-09-04T16:34:25,42.805,6.029,CST-1368DR,8083,11320,15406,0.054,551
2019-09-04T16:37:27,42.805,6.029,CST-1368DR,8083,11319,15404,0.055,551